This is the latest recevied weather packets stored in our database for station/object N4HAC. If no packets are shown the sender has not sent any weather packets the latest 1 day(s).
| Time | Temp. | Humidity | Pressure | Rain* | Wind** | Luminosity | Snow |
|---|---|---|---|---|---|---|---|
| 1777997074 | 25° C | 43% | 1006.4 hPa | 0 mm | 3.58 m/s, 157° | 809 W/m² | - |
| 1777996770 | 25.56° C | 43% | 1006.4 hPa | 0 mm | 1.79 m/s, 112° | 805 W/m² | - |
| 1777996467 | 25.56° C | 43% | 1006.5 hPa | 0 mm | 1.34 m/s, 118° | 805 W/m² | - |
| 1777996164 | 25° C | 45% | 1006.8 hPa | 0 mm | 1.79 m/s, 68° | 808 W/m² | - |
| 1777995860 | 25° C | 46% | 1006.8 hPa | 0 mm | 4.47 m/s, 133° | 811 W/m² | - |
| 1777995556 | 25.56° C | 45% | 1006.8 hPa | 0 mm | 0.89 m/s, 86° | 808 W/m² | - |
| 1777995254 | 24.44° C | 44% | 1006.8 hPa | 0 mm | 2.68 m/s, 127° | 808 W/m² | - |
| 1777994951 | 24.44° C | 45% | 1007 hPa | 0 mm | 2.68 m/s, 100° | 802 W/m² | - |
| 1777994648 | 23.89° C | 45% | 1007 hPa | 0 mm | 4.02 m/s, 157° | 795 W/m² | - |
| 1777994347 | 24.44° C | 43% | 1007.1 hPa | 0 mm | 4.92 m/s, 134° | 784 W/m² | - |
| 1777994044 | 23.89° C | 45% | 1006.9 hPa | 0 mm | 4.92 m/s, 142° | 775 W/m² | - |
| 1777993741 | 24.44° C | 45% | 1006.9 hPa | 0 mm | 4.92 m/s, 166° | 777 W/m² | - |
| 1777993439 | 23.33° C | 46% | 1006.8 hPa | 0 mm | 3.58 m/s, 140° | 752 W/m² | - |
| 1777993138 | 23.33° C | 48% | 1007 hPa | 0 mm | 5.81 m/s, 142° | 741 W/m² | - |
| 1777992837 | 23.33° C | 48% | 1006.6 hPa | 0 mm | 4.47 m/s, 130° | 732 W/m² | - |
| 1777992534 | 23.89° C | 49% | 1006.7 hPa | 0 mm | 4.92 m/s, 146° | 722 W/m² | - |
| 1777992233 | 23.33° C | 48% | 1006.6 hPa | 0 mm | 4.02 m/s, 140° | 714 W/m² | - |
| 1777991929 | 23.33° C | 48% | 1006.5 hPa | 0 mm | 3.13 m/s, 124° | 702 W/m² | - |
| 1777991627 | 23.33° C | 48% | 1006.6 hPa | 0 mm | 1.79 m/s, 111° | 327 W/m² | - |
| 1777991324 | 23.33° C | 48% | 1006.7 hPa | 0 mm | 0.89 m/s, 12° | 682 W/m² | - |
| 1777991021 | 23.89° C | 48% | 1006.5 hPa | 0 mm | 0.89 m/s, 157° | 674 W/m² | - |
| 1777990718 | 23.33° C | 46% | 1006.5 hPa | 0 mm | 1.79 m/s, 143° | 666 W/m² | - |
| 1777990415 | 22.78° C | 52% | 1006.6 hPa | 0 mm | 1.34 m/s, 130° | 653 W/m² | - |
| 1777990112 | 22.22° C | 54% | 1006.7 hPa | 0 mm | 1.34 m/s, 144° | 670 W/m² | - |
| 1777989809 | 21.67° C | 55% | 1006.9 hPa | 0 mm | 1.79 m/s, 128° | 630 W/m² | - |
* Rain latest hour (hover to see other rain measurements)
** Current wind speed in m/s (hover to see current wind gust speed)